Flag for Australia Weather past 2 weeks in Hobart, Tasmania, Australia

Now
45 °F

Passing clouds.


Feels Like: 41 °F
Forecast: 43 / 70 °F
Wind: 7 mph from North

Location: Hobart Airport

Current Time: Oct 24, 2014 at 2:50:18 AM

Latest Report: Oct 24, 2014 at 2:00 AM


Visibility: N/A

Pressure: 30.21 "Hg

Humidity: 87%

Dew point: 41 °F

Location of HobartLocation

Historic Weather in Hobart — Graph

°F

Hobart temperature yesterday

Maximum temperature yesterday: 59 °F (at 1:00 PM)
Minimum temperature yesterday: 48 °F (at 11:30 PM)
Average temperature yesterday: 55 °F

Past Weeks' High & Low Weather Summary

 TemperatureHumidityPressure
High75 °F (Oct 22, 1:00 PM)94% (Oct 14, 11:30 PM)30.57 "Hg (Oct 14, 11:30 PM)
Low37 °F (Oct 14, 6:00 AM)25% (Oct 12, 6:00 PM)29.45 "Hg (Oct 12, 6:00 PM)
Average55 °F59%30.08 "Hg
* Reported Oct 9 1:00 AM — Oct 24 1:30 AM, Hobart, Weather by CustomWeather, © 2014

Note: Actual official high and low records may vary slightly from our data, if they occured in-between our weather recording intervals... More about our weather records

Advertising

Hobart weather history for previous 24 hours

 ConditionsComfort  
Time TempWeatherWind HumidityBarometerVisibility
1:30 AM
Oct 24
46 °FPassing clouds.7 mph82%30.24 "HgN/A
1:00 AM46 °FClear.6 mph76%30.24 "Hg10 mi
12:30 AM46 °FClear.7 mph76%30.24 "Hg10 mi
12:00 AM50 °FClear.7 mph67%30.27 "Hg10 mi
11:30 PM
Oct 23
48 °FClear.7 mph71%30.27 "Hg10 mi
11:00 PM50 °FClear.8 mph67%30.27 "Hg10 mi
10:30 PM50 °FClear.13 mph67%30.27 "Hg10 mi
10:00 PM52 °FClear.13 mph62%30.27 "Hg10 mi
9:30 PM52 °FClear.13 mph62%30.27 "Hg10 mi
9:00 PM52 °FClear.10 mph62%30.30 "Hg10 mi
8:30 PM52 °FClear.13 mph62%30.30 "Hg10 mi
8:00 PM52 °FClear.9 mph62%30.27 "Hg10 mi
7:30 PM54 °FSunny.9 mph58%30.27 "Hg10 mi
7:00 PM54 °FSunny.10 mph58%30.27 "Hg10 mi
6:30 PM55 °FSunny.10 mph55%30.27 "Hg10 mi
6:00 PM57 °FSunny.9 mph51%30.27 "Hg10 mi
5:30 PM57 °FPassing clouds.10 mph51%30.24 "HgN/A
5:00 PM59 °FPassing clouds.12 mph48%30.24 "HgN/A
4:30 PM59 °FPassing clouds.14 mph51%30.24 "HgN/A
4:00 PM57 °FPassing clouds.16 mph51%30.24 "HgN/A
3:30 PM59 °FPassing clouds.14 mph48%30.24 "HgN/A
3:00 PM59 °FPassing clouds.13 mph45%30.27 "HgN/A
2:00 PM59 °FPassing clouds.13 mph45%30.27 "HgN/A
1:30 PM59 °FPassing clouds.14 mph48%30.27 "HgN/A
1:00 PM59 °FPassing clouds.14 mph45%30.27 "HgN/A
12:30 PM57 °FPassing clouds.12 mph48%30.27 "HgN/A
12:00 PM57 °FPassing clouds.10 mph48%30.30 "HgN/A
11:30 AM57 °FScattered clouds.10 mph44%30.30 "HgN/A
11:00 AM55 °FPartly sunny.10 mph51%30.30 "HgN/A
10:30 AM55 °FPartly sunny.12 mph51%30.30 "HgN/A
10:00 AM55 °FPartly sunny.9 mph51%30.30 "HgN/A
9:30 AM54 °FPartly sunny.12 mph54%30.30 "HgN/A
9:00 AM54 °FPartly sunny.14 mph51%30.30 "HgN/A
8:30 AM54 °FPartly sunny.15 mph54%30.30 "HgN/A
8:00 AM54 °FPartly sunny.10 mph54%30.27 "HgN/A
7:30 AM52 °FPartly sunny.13 mph58%30.27 "HgN/A
7:00 AM52 °FPartly sunny.15 mph58%30.24 "HgN/A
6:30 AM52 °FPartly sunny.15 mph58%30.24 "HgN/A
6:00 AM52 °FPassing clouds.15 mph58%30.21 "HgN/A
5:30 AM52 °FPassing clouds.13 mph58%30.21 "HgN/A
5:00 AM52 °FPassing clouds.16 mph58%30.18 "HgN/A
4:30 AM54 °FPassing clouds.15 mph58%30.18 "HgN/A
4:00 AM54 °FPassing clouds.17 mph58%30.18 "HgN/A
3:30 AM54 °FPassing clouds.20 mph63%30.18 "HgN/A
3:00 AM54 °FPassing clouds.17 mph67%30.18 "HgN/A
2:30 AM54 °FPassing clouds.17 mph72%30.18 "HgN/A
2:00 AM54 °FPassing clouds.16 mph82%30.15 "HgN/A
Weather by CustomWeather, © 2014

See weather overviewHow to use our weather pages